Weather History for Kugluktuk, NU

Change the Weather History Date:

Friday, December 7, 2012

  Actual Average Record
Temperature  
Mean Temperature -12 °F -  
Max Temperature -2 °F -1 °F 14 °F (1997)
Min Temperature -23 °F -12 °F -34 °F (2005)
Degree Days  
Heating Degree Days 78    
Moisture  
Dew Point -13 °F    
Average Humidity 75    
Maximum Humidity 92    
Minimum Humidity 60    
Precipitation  
Precipitation 0.00 in - - ()
Sea Level Pressure  
Sea Level Pressure 30.21 in    
Wind  
Wind Speed 10 mph ()    
Max Wind Speed 17 mph    
Max Gust Speed 23 mph    
Visibility 11.8 miles    
Events Snow    
Averages and records for this station are not official NWS values.
T = Trace of Precipitation, MM = Missing Value Source: Averaged Metar Reports

Daily Weather History Graph

Daily Weather History Graph

Search for Another Location

Airport:

Trip Planner

Search our weather history database for the weather conditions in past years. The results will help you decide how hot, cold, wet, or windy it might be!

Date:

Astronomy

Dec. 07, 2012 Rise Set
Actual Time 11:52 AM MST 1:12 PM MST
Civil Twilight 9:38 AM MST 3:25 PM MST
Nautical Twilight 8:13 AM MST 4:50 PM MST
Astronomical Twilight 7:04 AM MST 6:00 PM MST
Moon 1:27 AM MST (12/7) 12:45 PM MST (12/7)
Length of Visible Light 5h 47m
Length of Day
1h 20m
Last Quarter, 38% of the Moon is Illuminated
Dec 7
Last Quarter
Dec 13
New
Dec 19
First Quarter
Dec 28
Full
Jan 4
Last Quarter

Hourly Weather History & Observations

Time (MST) Temp. Windchill Dew Point Humidity Pressure Visibility Wind Dir Wind Speed Gust Speed Precip Events Conditions
12:00 AM -4.0 °F -20.2 °F -7.6 °F 85% 30.11 in 10.0 mi West 9.2 mph - N/A Snow Light Snow
1:00 AM -4.0 °F -20.2 °F -7.6 °F 85% 30.12 in 12.0 mi WNW 9.2 mph - N/A Snow Light Snow
2:00 AM -2.2 °F -19.9 °F -5.8 °F 85% 30.12 in 10.0 mi NNW 11.5 mph - N/A Snow Light Snow
3:00 AM -2.2 °F -20.7 °F -9.4 °F 71% 30.13 in 15.0 mi NNW 12.7 mph - N/A Snow Light Snow
3:55 AM - - - N/A% - 15.0 mi NW 9.2 mph - N/A   Partly Cloudy
4:00 AM -7.6 °F -24.6 °F -14.8 °F 71% 30.15 in 15.0 mi NW 9.2 mph - N/A   Partly Cloudy
5:00 AM -5 °F - -11 °F 64% 30.16 in 15 mi NNW 10.4 mph - -   Partly Cloudy
5:00 AM -5.8 °F -23.4 °F -11.2 °F 77% 30.16 in 15.0 mi NNW 10.4 mph - N/A   Overcast
5:13 AM - - - N/A% - 12.0 mi North 6.9 mph - N/A   Overcast
6:00 AM -7.6 °F -25.7 °F -13.0 °F 77% 30.16 in 15.0 mi WNW 10.4 mph - N/A   Mostly Cloudy
7:00 AM -7.6 °F -22.1 °F -13.0 °F 77% 30.17 in 10.0 mi West 6.9 mph - N/A   Overcast
8:00 AM -7.6 °F -25.7 °F -13.0 °F 77% 30.17 in 15.0 mi West 10.4 mph - N/A   Partly Cloudy
9:00 AM -9.4 °F -28.9 °F -16.6 °F 71% 30.18 in 15.0 mi West 11.5 mph - N/A   Mostly Cloudy
10:00 AM -9.4 °F -29.8 °F -14.8 °F 77% 30.19 in 10.0 mi West 12.7 mph - N/A Snow Low Drifting Snow
11:00 AM -9 °F - -15 °F 63% 30.21 in 12 mi West 9.2 mph - - Snow Snow
11:00 AM -9.4 °F -26.8 °F -14.8 °F 77% 30.21 in 12.0 mi West 9.2 mph - N/A   Overcast
12:00 PM -9.4 °F -29.8 °F -14.8 °F 77% 30.21 in 12.0 mi West 12.7 mph - N/A Snow Low Drifting Snow
1:00 PM -7.6 °F -26.6 °F -14.8 °F 71% 30.22 in 12.0 mi West 11.5 mph 18.4 mph N/A Snow Low Drifting Snow
2:00 PM -9.4 °F -28.9 °F -14.8 °F 77% 30.23 in 12.0 mi West 11.5 mph 19.6 mph N/A Snow Low Drifting Snow
3:00 PM -9.4 °F -28.9 °F -14.8 °F 77% 30.24 in 15.0 mi West 11.5 mph 17.3 mph N/A Snow Low Drifting Snow
4:00 PM -7.6 °F -27.5 °F -14.8 °F 71% 30.25 in 12.0 mi WSW 12.7 mph - N/A Snow Low Drifting Snow
5:00 PM -8 °F - -14 °F 61% 30.25 in 12 mi WSW 15.0 mph - - Snow Snow
5:00 PM -7.6 °F -26.6 °F -14.8 °F 71% 30.25 in 12.0 mi WSW 11.5 mph 17.3 mph N/A Snow Low Drifting Snow
6:00 PM -9.4 °F -28.9 °F -14.8 °F 77% 30.25 in 8.0 mi West 11.5 mph 20.7 mph N/A Snow Low Drifting Snow
7:00 PM -7.6 °F -26.6 °F -13.0 °F 77% 30.26 in 9.0 mi West 11.5 mph 18.4 mph N/A Snow Low Drifting Snow
8:00 PM -11.2 °F -31.1 °F -14.8 °F 84% 30.27 in 10.0 mi West 11.5 mph 17.3 mph N/A Snow Low Drifting Snow
9:00 PM -9.4 °F -32.8 °F -16.6 °F 71% 30.27 in 10.0 mi West 17.3 mph 23.0 mph N/A Snow Low Drifting Snow
9:52 PM - - - N/A% - 2.0 mi West 11.5 mph 17.3 mph N/A   Scattered Clouds
10:00 PM -9.4 °F -30.6 °F -11.2 °F 92% 30.27 in 2.0 mi West 13.8 mph - N/A Snow Low Drifting Snow
11:00 PM -10 °F - -16 °F 60% 30.28 in 15 mi West 16.1 mph - - Snow Light Snow Showers
11:00 PM -9.4 °F -32.1 °F -16.6 °F 71% 30.28 in 15.0 mi West 16.1 mph - N/A Snow Low Drifting Snow